カタログに戻る

FENGYUN 1C DEB

運用中SSO
NORAD 29975·DEBRIS·🇨🇳 China

打ち上げ May 10, 1999 から Taiyuan Satellite Launch Center

Loading…

次のパス (今後24時間)

TLE

最新Source: Space-Track

元期: Sep 14, 2026, 15:23 UTC

1 29975U 99025KZ  26257.64136676 -.00000066  00000-0 -13156-4 0  9992
2 29975  99.3031 307.9725 0113026 341.2435 171.7725 13.98133919  2882

AllMySatでFENGYUN 1C DEBをリアルタイム追跡

Download on the App Store